Location: McKinney
(33.1972°N, 96.6398°W)
Time: 15:53:16
(UTC-05:00)

Hubble Space Telescope - Visible Passes

Search period start: 21 April 2019 00:00
Search period end: 01 May 2019 00:00
Orbit: 537 x 540 km, 28.5° (Epoch: 21 April)

Date Brightness Start Highest point End Pass type
(mag) Time Alt. Az. Time Alt. Az. Time Alt. Az.
23 Apr 2.2 06:15:44 10° SW 06:19:17 28° SSE 06:22:52 10° ESE visible
24 Apr 3.5 04:29:50 11° SE 04:29:50 11° SE 04:30:04 10° SE visible
24 Apr 1.9 06:05:10 11° SW 06:08:44 32° SSE 06:12:27 10° ESE visible
25 Apr 3.5 04:19:48 11° ESE 04:19:48 11° ESE 04:20:05 10° ESE visible
25 Apr 1.7 05:55:08 14° SW 05:58:11 35° S 06:01:59 10° ESE visible
26 Apr 3.6 04:09:46 11° ESE 04:09:46 11° ESE 04:09:53 10° ESE visible
26 Apr 1.5 05:45:06 19° SW 05:47:38 38° S 05:51:30 10° ESE visible
27 Apr 1.4 05:35:03 23° SW 05:37:06 41° S 05:41:01 10° ESE visible
28 Apr 1.3 05:25:02 29° SW 05:26:34 43° S 05:30:30 10° ESE visible
29 Apr 1.2 05:15:02 36° SW 05:16:02 43° S 05:19:58 10° ESE visible
30 Apr 1.2 05:05:05 41° SSW 05:05:29 42° S 05:09:25 10° ESE visible
